Tracking 25648 objects as of 16-May-2022
HD Live streaming from Space Station
objects crossing your sky now

COSMOS 2251 DEB

Track COSMOS 2251 DEB now!
10-day predictions


NORAD ID: 36074
Int'l Code: 1993-036AYM
Perigee: 754.3 km
Apogee: 832.2 km
Inclination: 74.0 °
Period: 100.6 minutes
Semi major axis: 7164 km
RCS: 0.0022 m2 (small)
Launch date: June 16, 1993
Source: Commonwealth of Independent States (former USSR) (CIS)
Launch site: PLESETSK MISSILE AND SPACE COMPLEX (PKMTR)

Note: This is SATELLITE DEBRIS
aabbcc
Your satellite tracking list
Your tracking list is empty




NASA's NSSDC Master Catalog

Two Line Element Set (TLE):
1 36074U 93036AYM 22135.67081209  .00002045  00000-0  76398-3 0  9994
2 36074  73.9957 229.1068 0054350 266.4499  93.0434 14.31693476671389
Source of the keplerian elements: AFSPC